NSZ4343 ESSA-LQSA

Flight info

Callsign NSZ4343
Flight time N/A
Altitude 35000
Route BABAP3R BABAP T316 NEPVA DCT PENOR DCT REGLI DCT XOMBA/N0446F370 DCT OSDUK/N0443F360 DCT LAKIK DCT BOSNA BOSNA1N
Aircraft B738/M-SDE2E3FGHIRWXY/LB1

Departure

Time N/A
Airport Stockholm-Arlanda Airport (ESSA)

Arrival

Time 2026-04-21 21:25
Airport Sarajevo International Airport (LQSA)
Time Latitude Longitude Altitude Speed Heading
2026-04-21 20:15 50.16449 17.97833 37179 ft 475 kts 175°
2026-04-21 20:16 50.13151 17.98267 37187 ft 475 kts 175°
2026-04-21 20:16 50.06567 17.99132 37182 ft 475 kts 175°
2026-04-21 20:17 49.99972 17.99838 37175 ft 475 kts 178°
2026-04-21 20:17 49.93369 18.00035 37178 ft 475 kts 179°
2026-04-21 20:18 49.87882 18.00120 37183 ft 475 kts 179°
2026-04-21 20:18 49.80155 18.00292 37183 ft 475 kts 179°
2026-04-21 20:19 49.73555 18.00482 37183 ft 474 kts 179°
2026-04-21 20:19 49.67001 18.00682 37183 ft 474 kts 179°
2026-04-21 20:20 49.60399 18.00882 37186 ft 474 kts 179°
2026-04-21 20:20 49.53801 18.01080 37181 ft 474 kts 179°
2026-04-21 20:21 49.47196 18.01276 37179 ft 475 kts 179°
2026-04-21 20:21 49.40594 18.01472 37178 ft 475 kts 179°
2026-04-21 20:22 49.33989 18.01667 37179 ft 475 kts 179°
2026-04-21 20:22 49.24084 18.01959 37186 ft 475 kts 179°
2026-04-21 20:23 49.17472 18.02154 37171 ft 475 kts 180°
2026-04-21 20:23 49.10867 18.02348 37179 ft 475 kts 180°
2026-04-21 20:24 49.04262 18.02540 37177 ft 475 kts 180°
2026-04-21 20:24 48.97651 18.02734 37162 ft 475 kts 180°
2026-04-21 20:25 48.91046 18.02926 37168 ft 475 kts 180°
2026-04-21 20:25 48.84442 18.03117 37166 ft 474 kts 180°
2026-04-21 20:26 48.77837 18.03308 37165 ft 475 kts 180°
2026-04-21 20:26 48.71272 18.03497 37154 ft 475 kts 180°
2026-04-21 20:27 48.64674 18.03687 37157 ft 474 kts 180°
2026-04-21 20:27 48.58071 18.03877 37158 ft 474 kts 180°
2026-04-21 20:28 48.51470 18.04066 37148 ft 474 kts 181°
2026-04-21 20:28 48.44875 18.04254 37152 ft 474 kts 181°
2026-04-21 20:29 48.38280 18.04442 37152 ft 474 kts 181°
2026-04-21 20:29 48.32792 18.04598 37150 ft 474 kts 181°
2026-04-21 20:30 48.26199 18.04784 37147 ft 474 kts 181°
2026-04-21 20:30 48.19596 18.04971 37147 ft 475 kts 181°
2026-04-21 20:31 48.12989 18.05157 37147 ft 475 kts 181°
2026-04-21 20:31 48.06381 18.05343 37131 ft 475 kts 181°
2026-04-21 20:32 47.99770 18.05529 37143 ft 475 kts 181°
2026-04-21 20:32 47.93164 18.05714 37148 ft 475 kts 181°
2026-04-21 20:33 47.86549 18.05898 37133 ft 475 kts 181°
2026-04-21 20:33 47.79934 18.06082 37139 ft 476 kts 181°
2026-04-21 20:34 47.73313 18.06274 37145 ft 476 kts 181°
2026-04-21 20:34 47.66688 18.06522 37145 ft 476 kts 181°
2026-04-21 20:35 47.60067 18.06784 37138 ft 476 kts 181°
2026-04-21 20:35 47.53442 18.07040 37134 ft 476 kts 181°
2026-04-21 20:36 47.46816 18.07290 37136 ft 476 kts 181°
2026-04-21 20:36 47.40189 18.07538 37135 ft 476 kts 181°
2026-04-21 20:37 47.33564 18.07786 37140 ft 476 kts 181°
2026-04-21 20:37 47.26988 18.08031 37146 ft 476 kts 181°
2026-04-21 20:38 47.20364 18.08277 37114 ft 476 kts 181°
2026-04-21 20:38 47.13753 18.08523 37135 ft 475 kts 181°
2026-04-21 20:39 47.07144 18.08767 37133 ft 475 kts 181°
2026-04-21 20:39 47.00541 18.09011 37126 ft 475 kts 181°
2026-04-21 20:40 46.93939 18.09254 37119 ft 474 kts 182°
2026-04-21 20:40 46.87344 18.09497 37122 ft 474 kts 182°
2026-04-21 20:41 46.80751 18.09738 37124 ft 474 kts 182°
2026-04-21 20:41 46.74162 18.09979 37108 ft 474 kts 182°
2026-04-21 20:42 46.67569 18.10219 37121 ft 474 kts 182°
2026-04-21 20:42 46.60977 18.10459 37126 ft 474 kts 182°
2026-04-21 20:43 46.54370 18.10699 37105 ft 475 kts 182°
2026-04-21 20:43 46.47764 18.10938 37123 ft 475 kts 182°
2026-04-21 20:44 46.41148 18.11177 37124 ft 476 kts 182°
2026-04-21 20:44 46.34525 18.11415 37093 ft 476 kts 182°
2026-04-21 20:45 46.27913 18.11653 37113 ft 476 kts 183°
2026-04-21 20:45 46.21293 18.11890 37116 ft 476 kts 183°
2026-04-21 20:46 46.14670 18.12127 37102 ft 476 kts 183°
2026-04-21 20:46 46.08095 18.12362 37105 ft 476 kts 183°
2026-04-21 20:47 46.01485 18.12597 37116 ft 476 kts 183°
2026-04-21 20:47 45.94857 18.12832 37090 ft 476 kts 183°
2026-04-21 20:48 45.88237 18.13067 37105 ft 475 kts 183°
2026-04-21 20:48 45.81668 18.13299 37105 ft 475 kts 183°
2026-04-21 20:49 45.75129 18.12886 37118 ft 467 kts 193°
2026-04-21 20:49 45.68706 18.11486 37103 ft 466 kts 194°
2026-04-21 20:50 45.62283 18.10189 37107 ft 466 kts 193°
2026-04-21 20:50 45.55881 18.08742 37109 ft 463 kts 196°
2026-04-21 20:51 45.52761 18.07869 37084 ft 448 kts 197°
2026-04-21 20:51 45.49757 18.06999 37025 ft 435 kts 197°
2026-04-21 20:51 45.46817 18.06142 36805 ft 426 kts 198°
2026-04-21 20:51 45.43929 18.05307 36127 ft 424 kts 198°
2026-04-21 20:52 45.41042 18.04472 34956 ft 434 kts 198°
2026-04-21 20:52 45.38005 18.03601 33747 ft 443 kts 199°
2026-04-21 20:52 45.35004 18.02751 32450 ft 450 kts 199°
2026-04-21 20:52 45.31908 18.01883 31108 ft 456 kts 199°
2026-04-21 20:53 45.28736 18.01000 29730 ft 464 kts 199°
2026-04-21 20:53 45.25562 18.00117 28413 ft 472 kts 198°
2026-04-21 20:53 45.22327 17.99224 27451 ft 473 kts 197°
2026-04-21 20:53 45.19108 17.98342 26781 ft 467 kts 197°
2026-04-21 20:54 45.15928 17.97476 26212 ft 459 kts 197°
2026-04-21 20:54 45.12802 17.96622 25556 ft 453 kts 198°
2026-04-21 20:54 45.09761 17.95788 24932 ft 448 kts 198°
2026-04-21 20:54 45.06710 17.94949 24296 ft 444 kts 198°
2026-04-21 20:55 45.03701 17.94119 23655 ft 441 kts 197°
2026-04-21 20:55 45.00701 17.93293 22961 ft 436 kts 197°
2026-04-21 20:55 44.97761 17.92487 22668 ft 423 kts 197°
2026-04-21 20:55 44.94897 17.91703 22390 ft 421 kts 197°
2026-04-21 20:56 44.91990 17.90900 22107 ft 428 kts 197°
2026-04-21 20:56 44.89052 17.90087 21824 ft 431 kts 197°
2026-04-21 20:56 44.86116 17.89282 21571 ft 428 kts 197°
2026-04-21 20:56 44.83210 17.88492 21166 ft 424 kts 197°
2026-04-21 20:57 44.80315 17.87704 20602 ft 419 kts 196°
2026-04-21 20:57 44.77475 17.86932 20000 ft 414 kts 196°
2026-04-21 20:57 44.74654 17.86164 19399 ft 410 kts 197°
2026-04-21 20:57 44.71897 17.85415 18840 ft 407 kts 197°
2026-04-21 20:58 44.69127 17.84662 18243 ft 403 kts 197°
2026-04-21 20:58 44.66379 17.83915 17623 ft 400 kts 196°
2026-04-21 20:58 44.63655 17.83175 17029 ft 396 kts 195°
2026-04-21 20:58 44.60957 17.82442 16454 ft 393 kts 195°
2026-04-21 20:59 44.58283 17.81717 15896 ft 389 kts 195°
2026-04-21 20:59 44.55633 17.80999 15328 ft 386 kts 194°
2026-04-21 20:59 44.53013 17.80290 14790 ft 383 kts 194°
2026-04-21 20:59 44.50401 17.79584 14243 ft 381 kts 193°
2026-04-21 21:00 44.47806 17.78883 13669 ft 378 kts 193°
2026-04-21 21:00 44.45237 17.78190 13085 ft 375 kts 192°
2026-04-21 21:00 44.42679 17.77502 12541 ft 372 kts 192°
2026-04-21 21:00 44.40148 17.76821 11987 ft 369 kts 192°
2026-04-21 21:01 44.37655 17.76427 11505 ft 366 kts 177°
2026-04-21 21:01 44.35203 17.77273 11160 ft 359 kts 156°
2026-04-21 21:01 44.33006 17.78794 11038 ft 347 kts 153°
2026-04-21 21:01 44.30878 17.80355 10889 ft 341 kts 152°
2026-04-21 21:02 44.28813 17.81880 10746 ft 333 kts 152°
2026-04-21 21:02 44.26791 17.83364 10565 ft 324 kts 152°
2026-04-21 21:02 44.24823 17.84789 10404 ft 314 kts 153°
2026-04-21 21:02 44.22853 17.86109 9843 ft 313 kts 155°
2026-04-21 21:03 44.20949 17.87326 9870 ft 290 kts 155°
2026-04-21 21:03 44.19159 17.88463 9738 ft 278 kts 155°
2026-04-21 21:03 44.17418 17.89575 9391 ft 274 kts 155°
2026-04-21 21:03 44.15702 17.90675 8883 ft 274 kts 154°
2026-04-21 21:04 44.13973 17.91792 8358 ft 276 kts 153°
2026-04-21 21:04 44.12227 17.92930 8013 ft 277 kts 153°
2026-04-21 21:04 44.10484 17.94065 7719 ft 277 kts 153°
2026-04-21 21:04 44.08740 17.95196 7414 ft 275 kts 154°
2026-04-21 21:05 44.07007 17.96309 7151 ft 273 kts 153°
2026-04-21 21:05 44.05294 17.97408 6856 ft 270 kts 153°
2026-04-21 21:05 44.03596 17.98500 6609 ft 268 kts 153°
2026-04-21 21:05 44.01902 17.99592 6340 ft 267 kts 153°
2026-04-21 21:06 44.00255 18.00653 6210 ft 254 kts 153°
2026-04-21 21:06 43.98692 18.01660 6083 ft 241 kts 153°
2026-04-21 21:06 43.97209 18.02615 5972 ft 228 kts 153°
2026-04-21 21:06 43.95822 18.03507 5923 ft 213 kts 153°
2026-04-21 21:07 43.94517 18.04347 5823 ft 201 kts 153°
2026-04-21 21:07 43.93277 18.05175 5619 ft 194 kts 144°
2026-04-21 21:07 43.92471 18.06488 5480 ft 173 kts 109°
2026-04-21 21:07 43.91902 18.07999 5271 ft 174 kts 118°
2026-04-21 21:08 43.91337 18.09421 5075 ft 168 kts 112°
2026-04-21 21:08 43.90805 18.10878 4891 ft 171 kts 115°
2026-04-21 21:08 43.90253 18.12358 4691 ft 175 kts 115°
2026-04-21 21:08 43.89685 18.13872 4510 ft 177 kts 116°
2026-04-21 21:09 43.89118 18.15377 4336 ft 171 kts 116°
2026-04-21 21:09 43.88587 18.16790 4226 ft 168 kts 116°
2026-04-21 21:09 43.88045 18.18233 3969 ft 167 kts 117°
2026-04-21 21:09 43.87516 18.19643 3753 ft 164 kts 116°
2026-04-21 21:10 43.86998 18.20991 3590 ft 156 kts 117°
2026-04-21 21:10 43.86484 18.22300 3340 ft 154 kts 116°
2026-04-21 21:10 43.86005 18.23605 3111 ft 150 kts 114°
2026-04-21 21:10 43.85533 18.24870 2873 ft 148 kts 115°
2026-04-21 21:11 43.85060 18.26128 2636 ft 146 kts 115°
2026-04-21 21:11 43.84606 18.27401 2455 ft 148 kts 115°
2026-04-21 21:11 43.84118 18.28685 2221 ft 150 kts 116°
2026-04-21 21:11 43.83645 18.29979 1981 ft 151 kts 117°
2026-04-21 21:12 43.83161 18.31265 1796 ft 151 kts 117°
2026-04-21 21:12 43.82692 18.32531 1679 ft 138 kts 117°
2026-04-21 21:12 43.82218 18.33758 1990 ft 155 kts 118°
2026-04-21 21:12 43.81736 18.35039 2875 ft 151 kts 114°
2026-04-21 21:13 43.81570 18.36589 3195 ft 180 kts 68°
2026-04-21 21:13 43.82425 18.37825 3718 ft 189 kts 18°
2026-04-21 21:13 43.83721 18.37777 4169 ft 194 kts 334°
2026-04-21 21:13 43.84666 18.36536 4215 ft 190 kts 307°
2026-04-21 21:14 43.85533 18.35028 4216 ft 212 kts 305°
2026-04-21 21:14 43.86104 18.33135 4209 ft 213 kts 287°
2026-04-21 21:14 43.86587 18.31190 4209 ft 214 kts 291°
2026-04-21 21:14 43.87161 18.29242 4341 ft 228 kts 304°
2026-04-21 21:15 43.88327 18.27677 4901 ft 240 kts 327°
2026-04-21 21:15 43.89685 18.26308 5474 ft 239 kts 326°
2026-04-21 21:15 43.91008 18.24892 5592 ft 245 kts 324°
2026-04-21 21:15 43.92379 18.23444 5605 ft 248 kts 325°
2026-04-21 21:16 43.93756 18.22000 5590 ft 247 kts 325°
2026-04-21 21:16 43.95117 18.20576 5595 ft 245 kts 325°
2026-04-21 21:16 43.96474 18.19156 5593 ft 243 kts 325°
2026-04-21 21:16 43.97827 18.17742 5613 ft 243 kts 325°
2026-04-21 21:17 43.98725 18.16803 5602 ft 245 kts 325°
2026-04-21 21:17 44.00087 18.15379 5606 ft 245 kts 325°
2026-04-21 21:17 44.01908 18.13472 5602 ft 245 kts 325°
2026-04-21 21:17 44.02797 18.12485 5598 ft 249 kts 316°
2026-04-21 21:18 44.03588 18.10353 5595 ft 254 kts 277°
2026-04-21 21:18 44.03273 18.08029 5587 ft 243 kts 238°
2026-04-21 21:18 44.02157 18.06389 5605 ft 228 kts 215°
2026-04-21 21:18 44.00798 18.05396 5575 ft 213 kts 195°
2026-04-21 21:19 43.99391 18.05111 5590 ft 201 kts 176°
2026-04-21 21:19 43.97992 18.05193 5607 ft 201 kts 175°
2026-04-21 21:19 43.96607 18.05269 5627 ft 197 kts 175°
2026-04-21 21:19 43.95261 18.05343 5619 ft 195 kts 175°
2026-04-21 21:20 43.93899 18.05448 5620 ft 198 kts 168°
2026-04-21 21:20 43.92771 18.06350 5626 ft 180 kts 120°
2026-04-21 21:20 43.92075 18.07831 5603 ft 185 kts 121°
2026-04-21 21:20 43.91409 18.09319 5537 ft 184 kts 117°
2026-04-21 21:21 43.90775 18.10911 5318 ft 189 kts 115°
2026-04-21 21:21 43.90177 18.12482 5034 ft 182 kts 114°
2026-04-21 21:21 43.89610 18.13992 4734 ft 172 kts 114°
2026-04-21 21:21 43.89062 18.15460 4462 ft 172 kts 116°
2026-04-21 21:22 43.88519 18.16909 4236 ft 166 kts 116°
2026-04-21 21:22 43.87999 18.18299 4008 ft 159 kts 117°
2026-04-21 21:22 43.87473 18.19709 3748 ft 163 kts 117°
2026-04-21 21:22 43.86959 18.21054 3595 ft 153 kts 118°
2026-04-21 21:23 43.86451 18.22354 3326 ft 155 kts 116°
2026-04-21 21:23 43.85975 18.23678 3118 ft 152 kts 114°
2026-04-21 21:23 43.85500 18.24959 2901 ft 150 kts 115°
2026-04-21 21:23 43.85023 18.26223 2681 ft 148 kts 116°
2026-04-21 21:24 43.84559 18.27503 2442 ft 149 kts 115°
2026-04-21 21:24 43.84088 18.28768 2232 ft 148 kts 115°
2026-04-21 21:24 43.83616 18.30066 2009 ft 152 kts 115°
2026-04-21 21:24 43.83126 18.31368 1785 ft 152 kts 118°
2026-04-21 21:25 43.82654 18.32631 1682 ft 135 kts 117°
2026-04-21 21:25 43.82319 18.33522 1693 ft 76 kts 117°
2026-04-21 21:25 43.82115 18.34069 1707 ft 55 kts 117°
2026-04-21 21:25 43.82017 18.34329 1709 ft 19 kts 117°
2026-04-21 21:26 43.81956 18.34490 1713 ft 19 kts 117°
2026-04-21 21:26 43.82006 18.34619 1714 ft 18 kts 15°
2026-04-21 21:26 43.82111 18.34551 1711 ft 18 kts 301°
2026-04-21 21:26 43.82166 18.34407 1707 ft 17 kts 296°
2026-04-21 21:27 43.82219 18.34264 1704 ft 16 kts 297°
2026-04-21 21:27 43.82272 18.34124 1699 ft 17 kts 297°
2026-04-21 21:27 43.82330 18.33971 1695 ft 19 kts 297°
2026-04-21 21:27 43.82393 18.33801 1689 ft 18 kts 297°
2026-04-21 21:28 43.82440 18.33673 1685 ft 9 kts 297°
2026-04-21 21:28 43.82464 18.33609 1688 ft 0 kts 297°
2026-04-21 21:28 43.82486 18.33595 1685 ft 4 kts 355°
2026-04-21 21:29 43.82515 18.33610 1685 ft 4 kts 26°
2026-04-21 21:29 43.82532 18.33622 1691 ft 1 kts 29°
2026-04-21 21:29 43.82535 18.33624 1690 ft 0 kts 27°
2026-04-21 21:31 43.82535 18.33625 1690 ft 0 kts 28°